Weather in Aladyino

Russia / Ryazan Oblast     54°16′26″N   41°41′06″E
temp.,
°C
wind,
m/s
gust,
m/s
humid.,
%
clouds,
%
prec.,
mm/h
press.,
hPa
HPBL,
m
17 may, mon
mon1700:00+15ese2289100 0.4 101428
03:00+16ene249198 2.1 101476
06:00+16ene35925 0.0 1014138
09:00+22e45755 0.0 1014395
12:00+26se465398 0.0 1014696
15:00+26sse5849100 0.0 1014964
18:00+23ese496933 0.0 1013270
21:00+18se4979100 0.0 1014129
18 may, tue
tue1800:00+17se41067100 0.0 1013153
03:00+16se41265100 0.0 1013187
06:00+16ese4127331 0.0 1013214
09:00+22se5126186 0.0 1013483
12:00+26se68485 0.0 1012887
15:00+27ese694915 0.0 10111053
18:00+24se6136364 0.0 1011376
21:00+19ese5167232 0.0 1011313
19 may, wed
wed1900:00+18ese515645 0.0 1010283
03:00+17ese514640 0.0 1010286
06:00+17ese5177255 0.0 1010367
09:00+23se6155937 0.0 1011803
12:00+27se7135249 0.0 10101548
15:00+27se7125033 0.0 10101461
18:00+24ese6136254 0.0 1009399
21:00+20e5166979 0.0 1009371
20 may, thu
thu2000:00+19ese6146499 0.1 1010393
03:00+17ese41170100 0.1 1009251
06:00+18se715765 0.0 1008809
09:00+21sse8127291 0.0 10091213
12:00+19sse7117491 0.3 10111325
15:00+20s71166100 0.9 10121509
18:00+18s61076100 0.4 1013757
21:00+15sse410913 0.4 1014268
21 may, fri
fri2100:00+13s410960 0.0 1015250
03:00+12s499879 0.0 1016229
06:00+13sw4891100 0.0 1017326
09:00+17wsw4569100 0.0 1018710
12:00+20sw576190 0.1 10191603
15:00+20wsw566442 0.6 10191308
18:00+20wsw3469100 0.1 1019393
21:00+16sw1180100 0.1 102011